owner,sensor,date,latitude,longitude,vertical_datum,wind_speed,wind_to_direction,wind_speed_of_gust,qcFlag 
LOOP,urn:ioos:station:wmo:lopl1:1,2011-08-30T20:46:00Z,28.8850,-90.0250,10.0,1.8,89.0,2.8,'11111222,11111222,11111222' 
LOOP,urn:ioos:station:wmo:lopl1:1,2011-08-30T20:51:00Z,28.8850,-90.0250,10.0,2.0,107.0,3.1,'11111222,11111222,11111222' 
LOOP,urn:ioos:station:wmo:lopl1:1,2011-08-31T03:01:00Z,28.8850,-90.0250,10.0,4.3,117.0,5.3,'11111222,11111222,11111222' 
LOOP,urn:ioos:station:wmo:lopl1:1,2011-08-31T03:16:00Z,28.8850,-90.0250,10.0,4.3,111.0,5.7,'11111222,11111222,11111222' 
LOOP,urn:ioos:station:wmo:lopl1:1,2011-08-31T03:31:00Z,28.8850,-90.0250,10.0,4.7,122.0,5.7,'11111222,11111222,11111222' 
LOOP,urn:ioos:station:wmo:lopl1:1,2011-08-31T03:46:00Z,28.8850,-90.0250,10.0,4.7,120.0,5.7,'11111222,11111222,11111222' 
LOOP,urn:ioos:station:wmo:lopl1:1,2011-08-31T04:01:00Z,28.8850,-90.0250,10.0,4.1,121.0,5.1,'11111222,11111222,11111222' 
LOOP,urn:ioos:station:wmo:lopl1:1,2011-08-31T04:16:00Z,28.8850,-90.0250,10.0,4.0,120.0,5.6,'11111222,11111222,11111222' 
LOOP,urn:ioos:station:wmo:lopl1:1,2011-08-31T04:31:00Z,28.8850,-90.0250,10.0,4.1,124.0,4.8,'11111222,11111222,11111222' 
LOOP,urn:ioos:station:wmo:lopl1:1,2011-08-31T04:46:00Z,28.8850,-90.0250,10.0,5.1,130.0,5.9,'11111222,11111222,11111222' 
LOOP,urn:ioos:station:wmo:lopl1:1,2011-08-31T05:01:00Z,28.8850,-90.0250,10.0,5.7,131.0,6.3,'11111222,11111222,11111222' 
LOOP,urn:ioos:station:wmo:lopl1:1,2011-08-31T05:16:00Z,28.8850,-90.0250,10.0,4.7,127.0,5.7,'11111222,11111222,11111222' 
LOOP,urn:ioos:station:wmo:lopl1:1,2011-08-31T05:31:00Z,28.8850,-90.0250,10.0,4.3,121.0,5.1,'11111222,11111222,11111222' 
LOOP,urn:ioos:station:wmo:lopl1:1,2011-08-31T05:46:00Z,28.8850,-90.0250,10.0,4.5,126.0,5.7,'11111222,11111222,11111222' 
LOOP,urn:ioos:station:wmo:lopl1:1,2011-08-31T06:01:00Z,28.8850,-90.0250,10.0,4.5,123.0,5.2,'11111222,11111222,11111222' 
LOOP,urn:ioos:station:wmo:lopl1:1,2011-08-31T06:16:00Z,28.8850,-90.0250,10.0,4.3,123.0,5.0,'11111222,11111222,11111222' 
LOOP,urn:ioos:station:wmo:lopl1:1,2011-08-31T06:31:00Z,28.8850,-90.0250,10.0,4.6,131.0,5.6,'11111222,11111222,11111222' 
LOOP,urn:ioos:station:wmo:lopl1:1,2011-08-31T06:46:00Z,28.8850,-90.0250,10.0,5.2,134.0,6.5,'11111222,11111222,11111222' 
LOOP,urn:ioos:station:wmo:lopl1:1,2011-08-31T07:01:00Z,28.8850,-90.0250,10.0,5.8,133.0,7.0,'11111222,11111222,11111222' 
LOOP,urn:ioos:station:wmo:lopl1:1,2011-08-31T07:16:00Z,28.8850,-90.0250,10.0,5.6,134.0,6.5,'11111222,11111222,11111222' 
LOOP,urn:ioos:station:wmo:lopl1:1,2011-08-31T07:31:00Z,28.8850,-90.0250,10.0,5.1,131.0,6.1,'11111222,11111222,11111222' 
LOOP,urn:ioos:station:wmo:lopl1:1,2011-08-31T07:46:00Z,28.8850,-90.0250,10.0,5.3,139.0,7.1,'11111222,11111222,11111222' 
LOOP,urn:ioos:station:wmo:lopl1:1,2011-08-31T08:06:00Z,28.8850,-90.0250,10.0,5.4,127.0,6.7,'11111222,11111222,11111222' 
LOOP,urn:ioos:station:wmo:lopl1:1,2011-08-31T08:21:00Z,28.8850,-90.0250,10.0,5.0,130.0,5.8,'11111222,11111222,11111222' 
LOOP,urn:ioos:station:wmo:lopl1:1,2011-08-31T08:36:00Z,28.8850,-90.0250,10.0,4.9,126.0,5.8,'11111222,11111222,11111222' 
LOOP,urn:ioos:station:wmo:lopl1:1,2011-08-31T08:51:00Z,28.8850,-90.0250,10.0,5.2,128.0,6.3,'11111222,11111222,11111222' 
LOOP,urn:ioos:station:wmo:lopl1:1,2011-08-31T09:06:00Z,28.8850,-90.0250,10.0,4.4,122.0,5.3,'11111222,11111222,11111222' 
LOOP,urn:ioos:station:wmo:lopl1:1,2011-08-31T09:21:00Z,28.8850,-90.0250,10.0,4.1,132.0,4.9,'11111222,11111222,11111222' 
LOOP,urn:ioos:station:wmo:lopl1:1,2011-08-31T09:36:00Z,28.8850,-90.0250,10.0,4.7,131.0,5.7,'11111222,11111222,11111222' 
LOOP,urn:ioos:station:wmo:lopl1:1,2011-08-31T09:51:00Z,28.8850,-90.0250,10.0,4.9,115.0,5.7,'11111222,11111222,11111222' 
LOOP,urn:ioos:station:wmo:lopl1:1,2011-08-31T10:06:00Z,28.8850,-90.0250,10.0,5.1,114.0,6.6,'11111222,11111222,11111222' 
LOOP,urn:ioos:station:wmo:lopl1:1,2011-08-31T10:21:00Z,28.8850,-90.0250,10.0,4.9,115.0,6.0,'11111222,11111222,11111222' 
LOOP,urn:ioos:station:wmo:lopl1:1,2011-08-31T10:36:00Z,28.8850,-90.0250,10.0,4.6,118.0,5.5,'11111222,11111222,11111222' 
LOOP,urn:ioos:station:wmo:lopl1:1,2011-08-31T10:51:00Z,28.8850,-90.0250,10.0,4.2,121.0,5.5,'11111222,11111222,11111222' 
LOOP,urn:ioos:station:wmo:lopl1:1,2011-08-31T11:06:00Z,28.8850,-90.0250,10.0,4.8,115.0,6.1,'11111222,11111222,11111222' 
LOOP,urn:ioos:station:wmo:lopl1:1,2011-08-31T11:21:00Z,28.8850,-90.0250,10.0,4.0,114.0,4.6,'11111222,11111222,11111222' 
LOOP,urn:ioos:station:wmo:lopl1:1,2011-08-31T11:36:00Z,28.8850,-90.0250,10.0,4.7,116.0,5.6,'11111222,11111222,11111222' 
LOOP,urn:ioos:station:wmo:lopl1:1,2011-08-31T11:51:00Z,28.8850,-90.0250,10.0,4.4,107.0,5.7,'11111222,11111222,11111222' 
LOOP,urn:ioos:station:wmo:lopl1:1,2011-08-31T12:06:00Z,28.8850,-90.0250,10.0,4.5,107.0,6.0,'11111222,11111222,11111222' 
LOOP,urn:ioos:station:wmo:lopl1:1,2011-08-31T12:21:00Z,28.8850,-90.0250,10.0,5.0,99.0,6.5,'11111222,11111222,11111222' 
LOOP,urn:ioos:station:wmo:lopl1:1,2011-08-31T12:36:00Z,28.8850,-90.0250,10.0,4.8,103.0,5.7,'11111222,11111222,11111222' 
LOOP,urn:ioos:station:wmo:lopl1:1,2011-08-31T12:51:00Z,28.8850,-90.0250,10.0,4.1,118.0,5.0,'11111222,11111222,11111222' 
LOOP,urn:ioos:station:wmo:lopl1:1,2011-08-31T13:06:00Z,28.8850,-90.0250,10.0,4.5,136.0,5.3,'11111222,11111222,11111222' 
LOOP,urn:ioos:station:wmo:lopl1:1,2011-08-31T13:21:00Z,28.8850,-90.0250,10.0,4.6,140.0,5.5,'11111222,11111222,11111222' 
LOOP,urn:ioos:station:wmo:lopl1:1,2011-08-31T13:36:00Z,28.8850,-90.0250,10.0,5.0,141.0,5.7,'11111222,11111222,11111222' 
LOOP,urn:ioos:station:wmo:lopl1:1,2011-08-31T13:51:00Z,28.8850,-90.0250,10.0,4.5,143.0,5.2,'11111222,11111222,11111222' 
LOOP,urn:ioos:station:wmo:lopl1:1,2011-08-31T14:21:00Z,28.8850,-90.0250,10.0,4.1,132.0,5.3,'11111222,11111222,11111222' 
LOOP,urn:ioos:station:wmo:lopl1:1,2011-08-31T14:36:00Z,28.8850,-90.0250,10.0,4.2,117.0,4.8,'11111222,11111222,11111222' 
LOOP,urn:ioos:station:wmo:lopl1:1,2011-08-31T14:51:00Z,28.8850,-90.0250,10.0,3.9,114.0,5.0,'11111222,11111222,11111222' 
LOOP,urn:ioos:station:wmo:lopl1:1,2011-08-31T15:06:00Z,28.8850,-90.0250,10.0,4.2,113.0,5.3,'11111222,11111222,11111222' 
LOOP,urn:ioos:station:wmo:lopl1:1,2011-08-31T15:21:00Z,28.8850,-90.0250,10.0,2.9,103.0,3.7,'11111222,11111222,11111222' 
LOOP,urn:ioos:station:wmo:lopl1:1,2011-08-31T15:36:00Z,28.8850,-90.0250,10.0,3.6,94.0,4.5,'11111222,11111222,11111222' 
LOOP,urn:ioos:station:wmo:lopl1:1,2011-08-31T15:51:00Z,28.8850,-90.0250,10.0,3.2,97.0,4.2,'11111222,11111222,11111222' 
LOOP,urn:ioos:station:wmo:lopl1:1,2011-08-31T16:06:00Z,28.8850,-90.0250,10.0,4.6,96.0,5.7,'11111222,11111222,11111222' 
LOOP,urn:ioos:station:wmo:lopl1:1,2011-08-31T16:36:00Z,28.8850,-90.0250,10.0,5.1,63.0,6.3,'11111222,11111222,11111222' 
LOOP,urn:ioos:station:wmo:lopl1:1,2011-08-31T16:51:00Z,28.8850,-90.0250,10.0,5.3,68.0,6.3,'11111222,11111222,11111222' 
LOOP,urn:ioos:station:wmo:lopl1:1,2011-08-31T17:21:00Z,28.8850,-90.0250,10.0,6.9,63.0,8.3,'11111222,11111222,11111222' 
LOOP,urn:ioos:station:wmo:lopl1:1,2011-08-31T17:51:00Z,28.8850,-90.0250,10.0,8.7,67.0,10.0,'11111222,11111222,11111222' 
LOOP,urn:ioos:station:wmo:lopl1:1,2011-08-31T18:06:00Z,28.8850,-90.0250,10.0,7.8,72.0,9.3,'11111222,11111222,11111222' 
LOOP,urn:ioos:station:wmo:lopl1:1,2011-08-31T18:21:00Z,28.8850,-90.0250,10.0,6.6,79.0,7.9,'11111222,11111222,11111222' 
LOOP,urn:ioos:station:wmo:lopl1:1,2011-08-31T18:36:00Z,28.8850,-90.0250,10.0,6.7,71.0,7.6,'11111222,11111222,11111222' 
LOOP,urn:ioos:station:wmo:lopl1:1,2011-08-31T18:51:00Z,28.8850,-90.0250,10.0,6.6,82.0,7.6,'11111222,11111222,11111222' 
LOOP,urn:ioos:station:wmo:lopl1:1,2011-08-31T19:06:00Z,28.8850,-90.0250,10.0,6.6,88.0,7.9,'11111222,11111222,11111222' 
LOOP,urn:ioos:station:wmo:lopl1:1,2011-08-31T19:26:00Z,28.8850,-90.0250,10.0,6.0,85.0,7.2,'11111222,11111222,11111222' 
LOOP,urn:ioos:station:wmo:lopl1:1,2011-08-31T19:41:00Z,28.8850,-90.0250,10.0,6.6,86.0,7.5,'11111222,11111222,11111222' 
LOOP,urn:ioos:station:wmo:lopl1:1,2011-08-31T19:56:00Z,28.8850,-90.0250,10.0,5.8,87.0,7.2,'11111222,11111222,11111222' 
LOOP,urn:ioos:station:wmo:lopl1:1,2011-08-31T20:11:00Z,28.8850,-90.0250,10.0,6.0,89.0,7.0,'11111222,11111222,11111222' 
LOOP,urn:ioos:station:wmo:lopl1:1,2011-08-31T20:42:00Z,28.8850,-90.0250,10.0,6.2,75.0,7.6,'11111222,11111222,11111222' 
LOOP,urn:ioos:station:wmo:lopl1:1,2011-08-31T20:57:00Z,28.8850,-90.0250,10.0,5.9,73.0,8.4,'11111222,11111222,11111222' 
LOOP,urn:ioos:station:wmo:lopl1:1,2011-08-31T21:12:00Z,28.8850,-90.0250,10.0,5.2,73.0,6.2,'11111222,11111222,11111222' 
LOOP,urn:ioos:station:wmo:lopl1:1,2011-08-31T21:27:00Z,28.8850,-90.0250,10.0,6.0,84.0,7.6,'11111222,11111222,11111222' 
LOOP,urn:ioos:station:wmo:lopl1:1,2011-08-31T21:42:00Z,28.8850,-90.0250,10.0,6.8,87.0,8.1,'11111222,11111222,11111222' 
LOOP,urn:ioos:station:wmo:lopl1:1,2011-08-31T21:57:00Z,28.8850,-90.0250,10.0,6.5,81.0,7.6,'11111222,11111222,11111222' 
LOOP,urn:ioos:station:wmo:lopl1:1,2011-08-31T22:12:00Z,28.8850,-90.0250,10.0,6.0,80.0,7.0,'11111222,11111222,11111222' 
LOOP,urn:ioos:station:wmo:lopl1:1,2011-08-31T22:27:00Z,28.8850,-90.0250,10.0,5.8,82.0,6.6,'11111222,11111222,11111222' 
LOOP,urn:ioos:station:wmo:lopl1:1,2011-08-31T22:42:00Z,28.8850,-90.0250,10.0,7.9,57.0,10.3,'11111222,11111222,11111222' 
LOOP,urn:ioos:station:wmo:lopl1:1,2011-08-31T22:57:00Z,28.8850,-90.0250,10.0,6.3,65.0,8.5,'11111222,11111222,11111222' 
LOOP,urn:ioos:station:wmo:lopl1:1,2011-08-31T23:12:00Z,28.8850,-90.0250,10.0,5.9,75.0,7.3,'11111222,11111222,11111222' 
LOOP,urn:ioos:station:wmo:lopl1:1,2011-08-31T23:27:00Z,28.8850,-90.0250,10.0,7.0,70.0,8.0,'11111222,11111222,11111222' 
LOOP,urn:ioos:station:wmo:lopl1:1,2011-08-31T23:42:00Z,28.8850,-90.0250,10.0,6.7,70.0,8.4,'11111222,11111222,11111222' 
LOOP,urn:ioos:station:wmo:lopl1:1,2011-08-31T23:57:00Z,28.8850,-90.0250,10.0,7.0,83.0,8.3,'11111222,11111222,11111222' 
 
DISCLAIMER: The Gulf of Mexico Coastal and Ocean Observing (GCOOS) Data Portal aggregates data from the regional data providers for the convenience of all data users. Data published on this website should not be used for navigation or certain other uses as we cannot guarantee data accuracy or availability. The data and delivery services are provided 'as is' without warranty of any kind. Data Source: Gulf of Mexico Coastal Ocean Observing System Data Portal (http://data.gcoos.org/) 
